Home > Weather > Royan > Past weeks

Flag for France Weather for the Past 2 Weeks in Royan, France

Now
46 °F

Broken clouds.


Feels Like: 46 °F
Forecast: 43 / 49 °F
Wind: 2 mph from North

Location: Cognac Airport

Current Time: Feb 10, 2016 at 2:16:18 PM

Latest Report: Feb 10, 2016 at 1:30 PM


Visibility: N/A

Pressure: 29.77 "Hg

Humidity: 82%

Dew point: 41 °F

Location of RoyanLocation

Historic Weather in Royan — Graph

°F

Royan Temperature Yesterday

Maximum temperature yesterday: 55 °F (at 10:00 AM)
Minimum temperature yesterday: 39 °F (at 10:30 PM)
Average temperature yesterday: 50 °F

High & Low Weather Summary for the Past Weeks

 TemperatureHumidityPressure
High61 °F (Feb 6, 3:00 PM)100% (Jan 26, 9:30 PM)30.66 "Hg (Jan 26, 9:30 PM)
Low34 °F (Feb 4, 3:00 AM)44% (Feb 3, 3:30 PM)29.50 "Hg (Feb 9, 10:30 AM)
Average50 °F87%30.21 "Hg
* Reported Jan 26 1:00 PM — Feb 10 1:00 PM, Royan, Weather by CustomWeather, © 2016

Note: Actual official high and low records may vary slightly from our data, if they occured in-between our weather recording intervals... More about our weather records

Advertising

Royan Weather History for the Previous 24 Hours

 ConditionsComfort  
Time TempWeatherWind HumidityBarometerVisibility
1:00 PM
Wed, Feb 10
46 °FLight rain. Broken clouds.9 mph76%29.77 "HgN/A
12:30 PM46 °FBroken clouds.12 mph76%29.77 "HgN/A
12:00 PM46 °FCool.12 mph76%29.77 "HgN/A
11:30 AM46 °FSunny.13 mph82%29.77 "Hg10 mi
11:00 AM45 °FSunny.8 mph81%29.77 "Hg10 mi
10:30 AM43 °FPartly sunny.8 mph87%29.77 "HgN/A
10:00 AM43 °FQuite cool.7 mph81%29.77 "HgN/A
9:30 AM41 °FSunny.9 mph87%29.77 "Hg10 mi
9:00 AM39 °FChilly.10 mph93%29.77 "HgN/A
8:30 AM39 °FSunny.7 mph87%29.77 "Hg10 mi
8:00 AM37 °FClear.8 mph93%29.77 "Hg10 mi
7:30 AM39 °FClear.9 mph87%29.77 "Hg10 mi
7:00 AM41 °FLight rain. Passing clouds.12 mph87%29.80 "HgN/A
6:30 AM39 °FChilly.6 mph87%29.77 "HgN/A
6:00 AM41 °FPassing clouds.10 mph87%29.77 "HgN/A
5:30 AM39 °FMostly cloudy.7 mph93%29.77 "HgN/A
5:00 AM39 °FPassing clouds.3 mph87%29.77 "HgN/A
4:30 AM39 °FClear.6 mph93%29.77 "Hg10 mi
4:00 AM39 °FClear.6 mph87%29.80 "Hg10 mi
3:30 AM41 °FLight rain. Passing clouds.6 mph87%29.77 "HgN/A
3:00 AM41 °FQuite cool.6 mph81%29.77 "HgN/A
2:30 AM41 °FPartly cloudy.6 mph87%29.77 "HgN/A
1:30 AM41 °FPartly cloudy.5 mph81%29.77 "HgN/A
1:00 AM41 °FLight rain. Partly cloudy.13 mph87%29.77 "HgN/A
12:30 AM41 °FClear.14 mph81%29.74 "Hg10 mi
12:00 AM41 °FClear.10 mph81%29.74 "Hg10 mi
11:30 PM
Tue, Feb 9
41 °FPassing clouds.12 mph87%29.74 "HgN/A
11:00 PM41 °FPartly cloudy.13 mph81%29.71 "HgN/A
10:30 PM39 °FThundershowers. Mostly cloudy.22 mph93%29.74 "Hg4 mi
10:00 PM43 °FPartly cloudy.3 mph87%29.71 "HgN/A
9:30 PM45 °FMostly cloudy.9 mph76%29.71 "HgN/A
9:00 PM45 °FLight rain. Partly cloudy.16 mph76%29.71 "Hg5 mi
8:30 PM48 °FClear.20 mph58%29.65 "Hg10 mi
8:00 PM48 °FMostly cloudy.14 mph62%29.68 "HgN/A
7:30 PM48 °FOvercast.15 mph62%29.65 "HgN/A
7:00 PM48 °FPassing clouds.20 mph62%29.65 "HgN/A
6:30 PM50 °FOvercast.21 mph54%29.62 "HgN/A
6:00 PM50 °FMore clouds than sun.25 mph50%29.62 "HgN/A
5:30 PM50 °FPartly sunny.23 mph58%29.62 "HgN/A
5:00 PM50 °FSunny.28 mph54%29.62 "Hg10 mi
4:30 PM52 °FPartly sunny.26 mph62%29.59 "HgN/A
4:00 PM50 °FSunny.20 mph67%29.56 "Hg10 mi
3:30 PM52 °FPartly sunny.22 mph62%29.56 "HgN/A
3:00 PM52 °FCloudy.23 mph62%29.56 "HgN/A
2:30 PM52 °FBroken clouds.30 mph72%29.56 "HgN/A
2:00 PM54 °FPartly sunny.30 mph67%29.56 "HgN/A
Weather by CustomWeather, © 2016

See weather overviewHow to use our weather pages